Location: Barnston
(51.8500°N, 0.4000°E)
Time: 11:19:39
(UTC+00:00)

Cosmos 2322 - Pass Details

Date: 26 September 2023
Orbit: 842 x 852 km, 71.0° (Epoch: 28 November)

Event Time Altitude Azimuth Distance (km) Brightness Sun altitude
Rises 04:18:42 0° 329° (NNW) 3,430 6.7 -14.8°
Reaches altitude 10° 04:21:10 10° 330° (NNW) 2,490 6.0 -14.4°
Maximum altitude 04:26:54 83° 59° (ENE) 863 3.8 -13.6°
Drops below altitude 10° 04:32:36 10° 148° (SSE) 2,468 6.4 -12.7°
Sets 04:35:02 0° 149° (SSE) 3,397 7.1 -12.3°
